SKYSAT-B

Last updated on Sun Jun 21 2026 00:02:52 GMT+0000 (Coordinated Universal Time)

1 40072U 14037D 26171.42007102 .00000964 00000+0 11167-3 0 9998 2 40072 98.3840 130.5693 0004150 267.9415 92.1324 14.88034632646442
UTC large
Height (km)
Speed (km/s)
/
Latitude / Longitude
Inclination (degrees)
Orbital Period (minutes)
Azimuth
Elevation
Range (km)
Doppler Factor

Next 0 passes for location: London (51.5072 / 0.1276)

No passes found over London.
SKYSAT-B